Home   Weather   Kohtla-Järve   Past weeks

Flag for Estonia Past Weather in Kohtla-Järve, Estonia — Yesterday and Last 2 Weeks

Now
45 °F

Overcast.


Feels Like: 42 °F
Forecast: 45 / 52 °F
Wind: 5 mph from Southwest

Location: Johvi

Current Time: Oct 17, 2017 at 12:49:49 pm

Latest Report: Oct 17, 2017 at 11:00 am


Visibility: 28 mi

Pressure: 29.95 "Hg

Humidity: 82%

Dew Point: 40 °F

Location of Kohtla-JärveLocation

Past Weather in Kohtla-Järve — Graph

°F

Kohtla-Järve Temperature Yesterday

Maximum temperature yesterday: 54 °F (at 6:00 pm)
Minimum temperature yesterday: 38 °F (at 2:00 am)
Average temperature yesterday: 48 °F

High & Low Weather Summary for the Past Weeks

 TemperatureHumidityPressure
High54 °F (Oct 16, 6:00 pm)100% (Oct 6, 5:00 am)30.34 "Hg (Oct 6, 5:00 am)
Low31 °F (Oct 6, 5:00 am)77% (Oct 7, 3:00 pm)29.15 "Hg (Oct 5, 2:00 pm)
Average45 °F93%29.62 "Hg
* Reported Oct 2 11:00 am — Oct 17 11:00 am, Kohtla-Järve. Weather by CustomWeather, © 2017

Note: Actual official high and low records may vary slightly from our data, if they occured in-between our weather recording intervals... More about our weather records

Advertising

Kohtla-Järve Weather History for the Previous 24 Hours

Scroll right to see more
 ConditionsComfort  
Time TempWeatherWind HumidityBarometerVisibility
11:00 am
Tue, Oct 17
45 °FOvercast.5 mph82%29.95 "Hg28 mi
10:00 am42 °FPartly sunny.5 mph91%29.96 "Hg28 mi
9:00 am41 °FPassing clouds.5 mph92%29.96 "Hg31 mi
8:00 am40 °FSunny.3 mph93%29.95 "Hg28 mi
7:00 am39 °FClear.2 mph93%29.94 "Hg28 mi
6:00 am40 °FClear.2 mph93%29.94 "Hg28 mi
5:00 am39 °FClear.3 mph92%29.93 "Hg22 mi
4:00 am41 °FClear.2 mph91%29.92 "Hg31 mi
3:00 am42 °FClear.2 mph91%29.90 "Hg31 mi
2:00 am43 °FClear.3 mph90%29.89 "Hg31 mi
1:00 am45 °FClear.3 mph85%29.87 "Hg31 mi
12:00 am47 °FClear.5 mph83%29.85 "Hg31 mi
11:00 pm
Mon, Oct 16
49 °FClear.6 mph87%29.82 "Hg31 mi
10:00 pm51 °FClear.6 mph88%29.79 "Hg22 mi
9:00 pm54 °FOvercast.5 mph92%29.76 "Hg9 mi
8:00 pm54 °FLow clouds.5 mph95%29.74 "Hg6 mi
7:00 pm54 °FFog.5 mph95%29.72 "Hg6 mi
6:00 pm54 °FLow clouds.5 mph96%29.72 "Hg9 mi
5:00 pm53 °FRain showers. Low clouds.6 mph96%29.72 "Hg4 mi
4:00 pm53 °FLow clouds.7 mph97%29.71 "Hg1 mi
3:00 pm52 °FRain showers. Low clouds.7 mph97%29.73 "Hg3 mi
2:00 pm51 °FRain showers. Low clouds.6 mph97%29.75 "Hg2 mi
1:00 pm51 °FRain showers. Low clouds.6 mph95%29.78 "Hg2 mi
12:00 pm51 °FLow clouds.8 mph96%29.79 "Hg17 mi
Weather by CustomWeather, © 2017

See weather overview